This demonstration page uses our WeatherBlox Daily Observations layout. Learn more.

Hourly Observations for January 3, 2016

Temp ( °F °C ) Dew Point ( °F °C ) Humidity (%) Winds ( mph kmh ) Pressure ( in mb ) Visibility ( mi km ) Precip ( " mm )
12:15 am 00:15 Clear 26 -3.5 18 -7.9 72 72 NW 9 15 30.36 1028 10 16.0934 0 0
12:35 am 00:35 Clear 26 -3.5 18 -8 71 71 NW 10 17 30.36 1028 10 16.0934 0 0
12:55 am 00:55 Clear 25 -3.9 17 -8.2 72 72 WNW 9 15 30.36 1028 10 16.0934 0 0
1:15 am 01:15 Clear 24 -4.6 17 -8.5 74 74 NW 7 11 30.39 1029 10 16.0934 0 0
1:35 am 01:35 Clear 23 -5 17 -8.6 76 76 NW 7 11 30.39 1029 10 16.0934 0 0
1:55 am 01:55 Clear 22 -5.5 16 -8.8 78 78 NW 8 13 30.39 1029 10 16.0934 0 0
2:15 am 02:15 Clear 22 -5.4 16 -8.7 78 78 NNW 3 6 30.39 1029 10 16.0934 0 0
2:35 am 02:35 Clear 21 -6.2 15 -9.5 78 78 NW 6 9 30.39 1029 10 16.0934 0 0
2:55 am 02:55 Clear 19 -7.1 14 -10.1 79 79 NW 8 13 30.39 1029 10 16.0934 0 0
3:15 am 03:15 Clear 19 -7.2 15 -9.6 83 83 NW 8 13 30.39 1029 10 16.0934 0 0
3:35 am 03:35 Clear 21 -6.2 16 -9 81 81 NW 9 15 30.39 1029 10 16.0934 0 0
3:55 am 03:55 Clear 22 -5.6 15 -9.3 75 75 NW 8 13 30.42 1030 10 16.0934 0 0
4:15 am 04:15 Clear 21 -6 15 -9.4 77 77 NW 5 7 30.42 1030 10 16.0934 0 0
4:35 am 04:35 Clear 20 -6.5 15 -9.6 79 79 WNW 8 13 30.42 1030 10 16.0934 0 0
4:55 am 04:55 Clear 20 -6.9 14 -10 79 79 NW 8 13 30.42 1030 10 16.0934 0 0
5:15 am 05:15 Clear 21 -6.3 15 -9.3 80 80 NW 7 11 30.42 1030 10 16.0934 0 0
5:35 am 05:35 Clear 21 -6.2 15 -9.5 78 78 NW 9 15 30.42 1030 10 16.0934 0 0
5:55 am 05:55 Clear 22 -5.8 15 -9.6 75 75 NW 8 13 30.42 1030 10 16.0934 0 0
6:15 am 06:15 Clear 22 -5.8 15 -9.6 75 75 NW 9 15 30.42 1030 10 16.0934 0 0
6:35 am 06:35 Clear 20 -6.5 14 -9.9 77 77 NW 8 13 30.42 1030 10 16.0934 0 0
6:55 am 06:55 Clear 20 -6.6 14 -10 77 77 NW 9 15 30.48 1032 10 16.0934 0 0
7:15 am 07:15 Clear 20 -6.8 14 -10 78 78 NW 9 15 30.48 1032 10 16.0934 0 0
7:35 am 07:35 Clear 20 -6.6 13 -10.3 75 75 NW 8 13 30.48 1032 10 16.0934 0 0
7:55 am 07:55 Clear 19 -7 13 -10.4 77 77 NW 7 11 30.48 1032 10 16.0934 0 0
8:15 am 08:15 Sunny 20 -6.5 14 -10 76 76 WNW 7 11 30.45 1031 10 16.0934 0 0
8:35 am 08:35 Sunny 21 -6.3 14 -9.9 76 76 NW 7 11 30.45 1031 10 16.0934 0 0
8:55 am 08:55 Sunny 22 -5.4 15 -9.2 75 75 NW 8 13 30.45 1031 10 16.0934 0 0
9:15 am 09:15 Sunny 24 -4.5 16 -8.8 72 72 WNW 7 11 30.48 1032 10 16.0934 0 0
9:35 am 09:35 Sunny 26 -3.3 17 -8.2 69 69 NW 8 13 30.45 1031 10 16.0934 0 0
9:55 am 09:55 Sunny 29 -1.9 18 -7.8 64 64 NNW 7 11 30.45 1031 10 16.0934 0 0
10:15 am 10:15 Sunny 30 -1.1 18 -7.9 60 60 NW 8 13 30.48 1032 10 16.0934 0 0
10:35 am 10:35 Sunny 31 -0.6 19 -7.2 61 61 NNW 6 9 30.48 1032 10 16.0934 0 0
10:55 am 10:55 Sunny 32 0.2 20 -6.9 59 59 NNW 8 13 30.45 1031 10 16.0934 0 0
11:15 am 11:15 Sunny 34 1 20 -6.8 56 56 NNW 7 11 30.45 1031 10 16.0934 0 0
11:35 am 11:35 Sunny 36 2.1 20 -6.6 53 53 N 7 11 30.45 1031 10 16.0934 0 0
11:55 am 11:55 Sunny 35 1.7 20 -6.7 54 54 N 9 15 30.45 1031 10 16.0934 0 0
12:15 pm 12:15 Sunny 37 2.6 20 -6.4 52 52 N 8 13 30.39 1029 10 16.0934 0 0
12:35 pm 12:35 Sunny 37 2.5 20 -6.6 51 51 N 7 11 30.39 1029 10 16.0934 0 0
12:55 pm 12:55 Sunny 37 2.9 20 -6.8 49 49 NNE 6 9 30.39 1029 10 16.0934 0 0
1:15 pm 13:15 Sunny 38 3.6 20 -6.5 48 48 N 7 11 30.36 1028 10 16.0934 0 0
1:35 pm 13:35 Sunny 37 2.9 20 -6.4 51 51 N 6 9 30.36 1028 10 16.0934 0 0
1:55 pm 13:55 Sunny 38 3.2 20 -6.4 50 50 N 8 13 30.36 1028 10 16.0934 0 0
2:15 pm 14:15 Sunny 38 3.6 21 -6.3 49 49 N 3 6 30.36 1028 10 16.0934 0 0
2:35 pm 14:35 Sunny 39 4.1 21 -6.3 47 47 N 5 7 30.36 1028 10 16.0934 0 0
2:55 pm 14:55 Sunny 40 4.3 20 -6.5 46 46 N 6 9 30.36 1028 10 16.0934 0 0
3:15 pm 15:15 Sunny 40 4.7 20 -6.5 44 44 N 5 7 30.36 1028 10 16.0934 0 0
3:35 pm 15:35 Sunny 40 4.7 21 -6.3 45 45 Calm 30.36 1028 10 16.0934 0 0
3:55 pm 15:55 Sunny 40 4.4 21 -6.1 47 47 N 5 7 30.36 1028 10 16.0934 0 0
4:15 pm 16:15 Sunny 40 4.2 22 -5.7 49 49 NNE 9 15 30.36 1028 10 16.0934 0 0
4:35 pm 16:35 Sunny 38 3.3 22 -5.8 52 52 NNE 8 13 30.39 1029 10 16.0934 0 0
4:55 pm 16:55 Sunny 36 2.2 22 -5.6 57 57 NE 5 7 30.42 1030 10 16.0934 0 0
5:15 pm 17:15 Sunny 33 0.8 22 -5.5 63 63 NE 3 6 30.42 1030 10 16.0934 0 0
5:35 pm 17:35 Clear 30 -1.3 21 -6.2 70 70 NE 5 7 30.45 1031 10 16.0934 0 0
5:55 pm 17:55 Clear 29 -1.9 21 -6.2 73 73 NE 3 6 30.45 1031 10 16.0934 0 0
6:15 pm 18:15 Clear 26 -3.2 21 -6.3 79 79 NE 5 7 30.45 1031 10 16.0934 0 0
6:35 pm 18:35 Clear 27 -2.6 22 -5.6 80 80 NE 3 6 30.45 1031 10 16.0934 0 0
6:55 pm 18:55 Clear 27 -2.6 22 -5.6 80 80 Calm 30.45 1031 10 16.0934 0 0
7:15 pm 19:15 Clear 27 -2.6 21 -6 78 78 Calm 30.48 1032 10 16.0934 0 0
7:35 pm 19:35 Clear 25 -3.9 19 -7.1 79 79 E 5 7 30.5 1033 10 16.0934 0 0
7:55 pm 19:55 Clear 25 -3.7 20 -6.7 80 80 E 5 7 30.5 1033 10 16.0934 0 0
8:15 pm 20:15 Clear 26 -3.5 21 -6.2 82 82 E 3 6 30.48 1032 10 16.0934 0 0
8:35 pm 20:35 Clear 24 -4.4 19 -7 82 82 E 5 7 30.5 1033 10 16.0934 0 0
8:55 pm 20:55 Clear 25 -4.1 20 -6.4 84 84 E 7 11 30.5 1033 10 16.0934 0 0
9:15 pm 21:15 Clear 24 -4.4 20 -6.8 84 84 E 6 9 30.5 1033 10 16.0934 0 0
9:35 pm 21:35 Clear 23 -4.8 20 -6.8 86 86 ESE 5 7 30.5 1033 10 16.0934 0 0
9:55 pm 21:55 Clear 22 -5.6 19 -7.1 89 89 E 6 9 30.5 1033 10 16.0934 0 0
10:15 pm 22:15 Clear 23 -4.9 21 -6.1 91 91 ESE 5 7 30.5 1033 10 16.0934 0 0
10:35 pm 22:35 Clear 23 -4.9 20 -6.4 89 89 ESE 3 6 30.5 1033 10 16.0934 0 0
10:55 pm 22:55 Clear 23 -5.2 21 -6.3 92 92 SSE 3 6 30.53 1034 10 16.0934 0 0
11:15 pm 23:15 Clear 22 -5.6 20 -6.7 92 92 SE 3 6 30.53 1034 10 16.0934 0 0
11:35 pm 23:35 Clear 20 -6.4 19 -7.4 93 93 SE 6 9 30.53 1034 10 16.0934 0 0
11:55 pm 23:55 Clear 18 -7.6 17 -8.6 93 93 ESE 8 13 30.56 1035 10 16.0934 0 0

Powered by AerisWeather